Weather in Krasnyy Yar

Russia / Perm Krai     57°23′14″N   54°26′44″E
temp.,
°C
wind,
m/s
gust,
m/s
humid.,
%
clouds,
%
prec.,
mm/h
press.,
hPa
HPBL,
m
19 september, sun
sun1923:00+2nw6128631 0.0 1016549
02:00+2nw7128361 0.0 1016680
05:00+1nw7138599 0.0 1017633
08:00+3nw61080100 0.1 10181034
11:00+5nnw7960100 0.1 10191423
14:00+6nw6854100 0.0 10201507
17:00+5nw6855100 0.0 10211470
20:00+4nnw6856100 0.0 1022998
20 september, mon
mon2023:00+3nw5868100 0.0 1023478
02:00+1nw488174 0.0 1024246
05:00+1nw367991 0.0 1026165
08:000nnw38895 0.0 1027239
11:00+5n456531 0.0 1027788
14:00+7n455699 0.0 10281313
17:00+6nne4460100 0.0 10291202
20:00+5ne3667100 0.0 1029430
21 september, tue
tue2123:00+4ne3672100 0.0 1030348
02:00+4ene247197 0.0 1031148
05:00+3ne226910 0.0 103115
08:00+1ne23795 0.0 103154
11:00+6ene33605 0.0 1030746
14:00+9ene22495 0.0 1028988
17:00+10ne22475 0.0 10271046
20:00+5ne22670 0.0 102713
22 september, wed
wed2223:00+3ne33805 0.0 102735
02:00+1ene22889 0.0 102717
05:000ne22893 0.0 102724
08:00+1ne23872 0.0 102747
11:00+7ene34635 0.0 1027470
14:00+11ene34555 0.0 1026949
17:00+12ene335525 0.0 10261141
20:00+7ene22775 0.0 102717
23 september, thu
thu2323:00+5ene34884 0.0 102847
02:00+4ene22914 0.0 102819
05:00+3e22915 0.0 102815
08:00+3e22900 0.0 102931
11:00+9ese45632 0.0 1029431
14:00+13se34462 0.0 1028785
17:00+14se344899 0.0 1027883
20:00+11s226099 0.0 102724